When you browse on this site, cookies collect data to enhance your experience and personalize the content and advertising you see.
Visit our Privacy Policy to learn more. By continuing to use the site, you agree to this use of cookies and data.
  • Em Portugal
  • Lista de países
  • Para 7 dias
  • Temperatura da água
  • Mapa do tempo
  • Widgets de tempo
  • user-avatar
    Iniciar Sessão

    Previsão horária em Sharan

    Hoje, 4 Junho, Quinta-feira

    Tempo Temperatura Precipitação Vento Pressão Humidade
    00:00 +20°C° 0 mm 1 m/s 587 mmHg 49%
    01:00 +19°C° 0 mm 1 m/s 587 mmHg 52%
    02:00 +17°C° 0 mm 0 m/s 587 mmHg 54%
    03:00 +16°C° 0 mm 0 m/s 586 mmHg 56%
    04:00 +16°C° 0 mm 0 m/s 586 mmHg 58%
    05:00 +15°C° 0 mm 0 m/s 586 mmHg 60%
    06:00 +18°C° 0 mm 1 m/s 586 mmHg 53%
    07:00 +20°C° 0 mm 1 m/s 587 mmHg 47%
    08:00 +20°C° 0 mm 2 m/s 588 mmHg 41%
    09:00 +21°C° 0 mm 2 m/s 588 mmHg 34%
    10:00 +23°C° 0 mm 2 m/s 589 mmHg 28%
    11:00 +24°C° 0 mm 3 m/s 589 mmHg 22%
    12:00 +25°C° 0 mm 3 m/s 589 mmHg 21%
    13:00 +26°C° 0 mm 3 m/s 588 mmHg 19%
    14:00 +27°C° 0 mm 3 m/s 588 mmHg 17%
    15:00 +27°C° 0 mm 3 m/s 588 mmHg 17%
    16:00 +27°C° 0 mm 2 m/s 588 mmHg 16%
    17:00 +28°C° 0 mm 2 m/s 588 mmHg 15%
    18:00 +27°C° 0 mm 2 m/s 588 mmHg 17%
    19:00 +27°C° 0 mm 2 m/s 588 mmHg 19%
    20:00 +26°C° 0 mm 2 m/s 588 mmHg 20%
    21:00 +25°C° 0 mm 2 m/s 588 mmHg 24%
    22:00 +24°C° 0 mm 2 m/s 588 mmHg 28%
    23:00 +23°C° 0 mm 2 m/s 588 mmHg 31%

    Amanhã, 5 Junho, Sexta-feira

    Tempo Temperatura Precipitação Vento Pressão Humidade
    00:00 +21°C° 0 mm 2 m/s 587 mmHg 32%
    01:00 +21°C° 0 mm 2 m/s 587 mmHg 32%
    02:00 +20°C° 0 mm 2 m/s 587 mmHg 32%
    03:00 +19°C° 0 mm 2 m/s 586 mmHg 32%
    04:00 +18°C° 0 mm 2 m/s 586 mmHg 31%
    05:00 +18°C° 0 mm 2 m/s 586 mmHg 31%
    06:00 +19°C° 0 mm 2 m/s 586 mmHg 28%
    07:00 +20°C° 0 mm 2 m/s 587 mmHg 25%
    08:00 +21°C° 0 mm 3 m/s 588 mmHg 22%
    09:00 +22°C° 0 mm 3 m/s 588 mmHg 19%
    10:00 +25°C° 0 mm 4 m/s 589 mmHg 17%
    11:00 +26°C° 0 mm 4 m/s 589 mmHg 15%
    12:00 +27°C° 0 mm 4 m/s 589 mmHg 14%
    13:00 +28°C° 0 mm 5 m/s 589 mmHg 13%
    14:00 +29°C° 0 mm 5 m/s 589 mmHg 12%
    15:00 +29°C° 0 mm 4 m/s 589 mmHg 12%
    16:00 +29°C° 0 mm 4 m/s 588 mmHg 11%
    17:00 +29°C° 0 mm 4 m/s 588 mmHg 11%
    18:00 +28°C° 0 mm 5 m/s 588 mmHg 12%
    19:00 +27°C° 0 mm 6 m/s 588 mmHg 14%
    20:00 +27°C° 0 mm 7 m/s 588 mmHg 15%
    21:00 +26°C° 0 mm 6 m/s 588 mmHg 16%
    22:00 +23°C° 0 mm 6 m/s 588 mmHg 18%
    23:00 +22°C° 0 mm 5 m/s 588 mmHg 19%

    Depois de amanhã, 6 Junho, Sábado

    Tempo Temperatura Precipitação Vento Pressão Humidade
    00:00 +21°C° 0 mm 4 m/s 587 mmHg 21%
    01:00 +21°C° 0 mm 4 m/s 587 mmHg 22%
    02:00 +20°C° 0 mm 3 m/s 586 mmHg 24%
    03:00 +19°C° 0 mm 2 m/s 586 mmHg 25%
    04:00 +18°C° 0 mm 2 m/s 586 mmHg 27%
    05:00 +18°C° 0 mm 2 m/s 586 mmHg 28%
    06:00 +19°C° 0 mm 2 m/s 587 mmHg 25%
    07:00 +21°C° 0 mm 3 m/s 587 mmHg 23%
    08:00 +22°C° 0 mm 3 m/s 588 mmHg 20%
    09:00 +23°C° 0 mm 5 m/s 589 mmHg 18%
    10:00 +26°C° 0 mm 6 m/s 589 mmHg 15%
    11:00 +27°C° 0 mm 7 m/s 590 mmHg 13%
    12:00 +28°C° 0 mm 7 m/s 590 mmHg 12%
    13:00 +29°C° 0 mm 6 m/s 590 mmHg 11%
    14:00 +30°C° 0 mm 6 m/s 589 mmHg 10%
    15:00 +30°C° 0 mm 6 m/s 589 mmHg 10%
    16:00 +30°C° 0 mm 5 m/s 589 mmHg 9%
    17:00 +30°C° 0 mm 5 m/s 589 mmHg 9%
    18:00 +29°C° 0 mm 6 m/s 588 mmHg 11%
    19:00 +27°C° 0 mm 7 m/s 588 mmHg 13%
    20:00 +26°C° 0 mm 8 m/s 588 mmHg 15%
    21:00 +24°C° 0 mm 6 m/s 588 mmHg 16%
    22:00 +23°C° 0 mm 5 m/s 588 mmHg 18%
    23:00 +22°C° 0 mm 4 m/s 588 mmHg 19%

    7 Junho, Domingo

    Tempo Temperatura Precipitação Vento Pressão Humidade
    00:00 +21°C° 0 mm 4 m/s 587 mmHg 20%
    01:00 +20°C° 0 mm 3 m/s 587 mmHg 21%
    02:00 +19°C° 0 mm 3 m/s 586 mmHg 22%
    03:00 +19°C° 0 mm 3 m/s 586 mmHg 23%
    04:00 +18°C° 0 mm 2 m/s 586 mmHg 24%
    05:00 +17°C° 0 mm 2 m/s 585 mmHg 25%
    06:00 +18°C° 0 mm 2 m/s 586 mmHg 23%
    07:00 +20°C° 0 mm 2 m/s 587 mmHg 21%
    08:00 +21°C° 0 mm 2 m/s 588 mmHg 18%
    09:00 +24°C° 0 mm 3 m/s 588 mmHg 16%
    10:00 +25°C° 0 mm 3 m/s 589 mmHg 14%
    11:00 +27°C° 0 mm 3 m/s 589 mmHg 11%
    12:00 +27°C° 0 mm 3 m/s 589 mmHg 10%
    13:00 +28°C° 0 mm 3 m/s 589 mmHg 9%
    14:00 +29°C° 0 mm 3 m/s 589 mmHg 8%
    15:00 +29°C° 0 mm 3 m/s 589 mmHg 8%
    16:00 +30°C° 0 mm 3 m/s 589 mmHg 8%
    17:00 +30°C° 0 mm 3 m/s 588 mmHg 7%
    18:00 +29°C° 0 mm 3 m/s 588 mmHg 9%
    19:00 +28°C° 0 mm 3 m/s 588 mmHg 12%
    20:00 +27°C° 0 mm 2 m/s 587 mmHg 14%
    21:00 +26°C° 0 mm 2 m/s 587 mmHg 16%
    22:00 +25°C° 0 mm 2 m/s 587 mmHg 19%
    23:00 +24°C° 0 mm 2 m/s 587 mmHg 22%

    8 Junho, Segunda-feira

    Tempo Temperatura Precipitação Vento Pressão Humidade
    00:00 +23°C° 0 mm 2 m/s 587 mmHg 25%
    01:00 +22°C° 0 mm 1 m/s 586 mmHg 28%
    02:00 +21°C° 0 mm 1 m/s 586 mmHg 31%
    03:00 +21°C° 0 mm 1 m/s 586 mmHg 31%
    04:00 +20°C° 0 mm 1 m/s 585 mmHg 31%
    05:00 +19°C° 0 mm 1 m/s 585 mmHg 31%
    06:00 +20°C° 0 mm 2 m/s 586 mmHg 28%
    07:00 +21°C° 0 mm 2 m/s 587 mmHg 25%
    08:00 +23°C° 0 mm 2 m/s 588 mmHg 21%
    09:00 +25°C° 0 mm 2 m/s 588 mmHg 19%
    10:00 +26°C° 0 mm 2 m/s 588 mmHg 16%
    11:00 +27°C° 0 mm 1 m/s 589 mmHg 14%
    12:00 +28°C° 0 mm 2 m/s 589 mmHg 13%
    13:00 +29°C° 0 mm 2 m/s 589 mmHg 12%
    14:00 +30°C° 0 mm 3 m/s 589 mmHg 10%
    15:00 +31°C° 0 mm 3 m/s 589 mmHg 10%
    16:00 +31°C° 0 mm 3 m/s 588 mmHg 10%
    17:00 +31°C° 0 mm 3 m/s 588 mmHg 10%
    18:00 +30°C° 0 mm 3 m/s 588 mmHg 12%
    19:00 +30°C° 0 mm 3 m/s 588 mmHg 13%
    20:00 +29°C° 0 mm 3 m/s 588 mmHg 15%
    21:00 +28°C° 0 mm 3 m/s 588 mmHg 23%
    22:00 +26°C° 0 mm 3 m/s 587 mmHg 31%
    23:00 +25°C° 0 mm 3 m/s 587 mmHg 38%

    9 Junho, Terça-feira

    Tempo Temperatura Precipitação Vento Pressão Humidade
    00:00 +24°C° 0 mm 2 m/s 587 mmHg 39%
    01:00 +24°C° 0 mm 2 m/s 586 mmHg 40%
    02:00 +23°C° 0 mm 2 m/s 586 mmHg 41%
    03:00 +22°C° 0 mm 1 m/s 586 mmHg 44%
    04:00 +22°C° 0 mm 1 m/s 585 mmHg 46%
    05:00 +21°C° 0 mm 1 m/s 585 mmHg 49%
    06:00 +22°C° 0 mm 1 m/s 586 mmHg 44%
    07:00 +24°C° 0 mm 1 m/s 587 mmHg 38%
    08:00 +23°C° 0 mm 0 m/s 587 mmHg 33%
    09:00 +26°C° 0 mm 1 m/s 588 mmHg 27%
    10:00 +28°C° 0 mm 3 m/s 588 mmHg 20%
    11:00 +30°C° 0 mm 4 m/s 589 mmHg 14%
    12:00 +32°C° 0 mm 4 m/s 589 mmHg 13%
    13:00 +32°C° 0 mm 5 m/s 589 mmHg 12%
    14:00 +33°C° 0 mm 6 m/s 589 mmHg 11%
    15:00 +33°C° 0 mm 7 m/s 589 mmHg 11%
    16:00 +33°C° 0 mm 8 m/s 588 mmHg 11%
    17:00 +33°C° 0 mm 9 m/s 588 mmHg 11%
    18:00 +32°C° 0 mm 7 m/s 588 mmHg 12%
    19:00 +30°C° 0 mm 6 m/s 588 mmHg 13%
    20:00 +29°C° 0 mm 4 m/s 588 mmHg 14%
    21:00 +28°C° 0 mm 4 m/s 587 mmHg 19%
    22:00 +26°C° 0 mm 4 m/s 587 mmHg 24%
    23:00 +23°C° 0 mm 4 m/s 587 mmHg 30%
    Mostrar mais